TimeCDT,TemperatureF,Dew PointF,Humidity,Sea Level PressureIn,VisibilityMPH,Wind Direction,Wind SpeedMPH,Gust SpeedMPH,PrecipitationIn,Events,Conditions,WindDirDegrees,DateUTC
12:53 AM,82.9,75.9,79,29.91,10.0,South,8.1,-,N/A,,Partly Cloudy,170,2013-09-02 05:53:00
1:53 AM,84.0,75.9,76,29.91,10.0,South,9.2,-,N/A,,Partly Cloudy,180,2013-09-02 06:53:00
3:53 AM,84.0,75.9,76,29.90,10.0,South,9.2,-,N/A,,Clear,190,2013-09-02 08:53:00
4:53 AM,84.0,75.9,76,29.90,10.0,South,9.2,-,N/A,,Scattered Clouds,170,2013-09-02 09:53:00
5:53 AM,84.0,75.9,76,29.90,10.0,SSW,8.1,-,N/A,,Partly Cloudy,200,2013-09-02 10:53:00
6:53 AM,84.0,75.9,76,29.91,10.0,SSW,9.2,-,N/A,,Partly Cloudy,200,2013-09-02 11:53:00
7:53 AM,84.9,75.0,72,29.92,10.0,SSW,8.1,-,N/A,,Partly Cloudy,200,2013-09-02 12:53:00
8:53 AM,86.0,75.0,70,29.93,10.0,South,10.4,-,N/A,,Scattered Clouds,190,2013-09-02 13:53:00
9:53 AM,87.1,75.0,67,29.96,10.0,SW,8.1,-,N/A,,Partly Cloudy,220,2013-09-02 14:53:00
10:53 AM,89.1,73.9,61,29.97,10.0,South,8.1,-,N/A,,Clear,180,2013-09-02 15:53:00
11:53 AM,90.0,75.0,61,29.96,10.0,South,9.2,-,N/A,,Clear,190,2013-09-02 16:53:00
12:53 PM,90.0,75.0,61,29.94,10.0,SSW,8.1,-,N/A,,Clear,210,2013-09-02 17:53:00
1:53 PM,91.0,75.9,61,29.93,10.0,South,12.7,-,N/A,Thunderstorm,Clear,170,2013-09-02 18:53:00
2:28 PM,91.4,75.2,59,29.93,10.0,South,10.4,-,N/A,,Clear,190,2013-09-02 19:28:00
2:46 PM,89.6,75.2,62,29.93,10.0,South,9.2,-,N/A,Thunderstorm,Clear,170,2013-09-02 19:46:00
2:53 PM,91.0,75.0,59,29.93,10.0,South,9.2,-,N/A,Thunderstorm,Clear,170,2013-09-02 19:53:00
3:53 PM,84.9,68.0,57,29.91,10.0,East,9.2,-,N/A,Thunderstorm,Mostly Cloudy,80,2013-09-02 20:53:00
4:07 PM,89.6,69.8,52,29.90,10.0,SSE,8.1,-,N/A,,Partly Cloudy,150,2013-09-02 21:07:00
4:53 PM,89.1,73.9,61,29.88,10.0,South,6.9,-,N/A,,Clear,180,2013-09-02 21:53:00
5:53 PM,88.0,75.0,65,29.87,10.0,South,11.5,-,N/A,,Clear,180,2013-09-02 22:53:00
6:53 PM,87.1,75.9,69,29.86,10.0,South,10.4,-,N/A,,Clear,170,2013-09-02 23:53:00
7:53 PM,84.9,75.0,72,29.87,10.0,South,8.1,-,N/A,,Clear,170,2013-09-03 00:53:00
8:53 PM,84.9,73.9,69,29.89,10.0,South,11.5,-,N/A,,Clear,180,2013-09-03 01:53:00
9:53 PM,84.0,75.0,74,29.91,10.0,South,8.1,-,N/A,,Clear,180,2013-09-03 02:53:00
10:53 PM,84.0,73.9,72,29.92,10.0,South,10.4,-,N/A,,Clear,180,2013-09-03 03:53:00
11:53 PM,84.9,75.0,72,29.93,10.0,South,12.7,18.4,N/A,,Clear,190,2013-09-03 04:53:00